User: anonymous
Location: Hartman Creek State Park
(44.3257°N, 89.2134°W)
Time: 09:46:27
(UTC-05:00)
Language:

Cosmos 2263 Rocket - Orbit

View from above orbital plane
View from above orbital plane
View from above satellite
View from above satellite

Ground track
Ground track

The orbit data is extracted from the following two-line orbital elements,

1 22803U 93059B   14208.87423102 -.00000253  00000-0 -10245-3 0  3275
2 22803 070.9919 313.0758 0017569 200.3511 159.6914 14.16671729 78812
Epoch (UTC): 27 July 2014 20:58:53
Eccentricity: 0.0017569
inclination: 70.9919°
perigee height: 824 km
apogee height: 849 km
right ascension of ascending node: 313.0758°
argument of perigee: 200.3511°
revolutions per day: 14.16671729
mean anomaly at epoch: 159.6914°
orbit number at epoch: 7881

The dashed part of the orbit path shows where the satellite is in the earth's shadow,  

DLR